TimeMST,TemperatureF,Dew PointF,Humidity,Sea Level PressureIn,VisibilityMPH,Wind Direction,Wind SpeedMPH,Gust SpeedMPH,PrecipitationIn,Events,Conditions,WindDirDegrees,DateUTC
12:15 AM,51.8,44.6,76,30.15,10.0,WSW,6.9,-,N/A,,Clear,240,2012-11-05 07:15:00
12:35 AM,50.0,42.8,76,30.15,10.0,WSW,6.9,-,N/A,,Clear,240,2012-11-05 07:35:00
12:55 AM,53.6,44.6,72,30.15,10.0,SW,6.9,-,N/A,,Clear,230,2012-11-05 07:55:00
1:15 AM,48.2,41.0,76,30.16,10.0,Calm,Calm,-,N/A,,Clear,0,2012-11-05 08:15:00
1:35 AM,46.4,41.0,81,30.15,10.0,SSW,4.6,-,N/A,,Clear,210,2012-11-05 08:35:00
1:55 AM,46.4,41.0,81,30.15,10.0,WSW,4.6,-,N/A,,Clear,240,2012-11-05 08:55:00
2:15 AM,48.2,41.0,76,30.15,10.0,SW,8.1,-,N/A,,Clear,230,2012-11-05 09:15:00
2:35 AM,48.2,41.0,76,30.14,10.0,WSW,6.9,-,N/A,,Clear,240,2012-11-05 09:35:00
2:55 AM,44.6,39.2,81,30.14,10.0,West,8.1,-,N/A,,Clear,270,2012-11-05 09:55:00
3:15 AM,44.6,39.2,81,30.14,10.0,West,9.2,-,N/A,,Clear,270,2012-11-05 10:15:00
3:35 AM,44.6,37.4,76,30.15,10.0,WNW,8.1,-,N/A,,Clear,290,2012-11-05 10:35:00
3:55 AM,44.6,35.6,71,30.16,10.0,NNW,12.7,19.6,N/A,,Clear,330,2012-11-05 10:55:00
5:50 AM,41.0,35.6,81,30.18,10.0,NW,6.9,-,N/A,,Clear,320,2012-11-05 12:50:00
6:50 AM,44.6,32.0,61,30.21,10.0,North,13.8,-,N/A,,Clear,350,2012-11-05 13:50:00
7:50 AM,51.8,30.2,44,30.23,10.0,North,15.0,21.9,N/A,,Clear,10,2012-11-05 14:50:00
8:50 AM,59.0,28.4,31,30.26,10.0,NNE,18.4,23.0,N/A,,Clear,20,2012-11-05 15:50:00
9:45 AM,64.4,26.6,24,30.26,10.0,NNE,15.0,18.4,N/A,,Clear,30,2012-11-05 16:45:00
10:50 AM,68.0,28.4,23,30.25,10.0,NNE,12.7,18.4,N/A,,Clear,30,2012-11-05 17:50:00
11:50 AM,69.8,28.4,21,30.23,10.0,NE,10.4,18.4,N/A,,Clear,40,2012-11-05 18:50:00
12:50 PM,71.6,28.4,20,30.20,10.0,North,10.4,-,N/A,,Clear,10,2012-11-05 19:50:00
1:50 PM,71.6,26.6,19,30.17,10.0,ENE,4.6,-,N/A,,Clear,70,2012-11-05 20:50:00
2:50 PM,71.6,26.6,19,30.18,10.0,NNE,4.6,-,N/A,,Clear,20,2012-11-05 21:50:00
3:50 PM,68.0,26.6,21,30.18,10.0,SE,3.5,-,N/A,,Clear,130,2012-11-05 22:50:00
4:50 PM,66.2,28.4,24,30.17,10.0,Calm,Calm,-,N/A,,Clear,0,2012-11-05 23:50:00
5:15 PM,62.6,28.4,27,30.18,10.0,East,5.8,-,N/A,,Clear,80,2012-11-06 00:15:00
5:35 PM,60.8,28.4,29,30.19,10.0,ENE,6.9,-,N/A,,Clear,70,2012-11-06 00:35:00
5:45 PM,62.6,28.4,27,30.18,10.0,ENE,5.8,-,N/A,,Clear,60,2012-11-06 00:45:00
5:55 PM,59.0,28.4,31,30.20,10.0,East,4.6,-,N/A,,Clear,80,2012-11-06 00:55:00
6:15 PM,59.0,28.4,31,30.20,10.0,North,-9999.0,-,N/A,,Clear,0,2012-11-06 01:15:00
6:35 PM,57.2,28.4,33,30.20,10.0,Calm,Calm,-,N/A,,Clear,0,2012-11-06 01:35:00
6:55 PM,57.2,28.4,33,30.19,10.0,Calm,Calm,-,N/A,,Clear,0,2012-11-06 01:55:00
7:15 PM,53.6,26.6,35,30.20,10.0,Calm,Calm,-,N/A,,Clear,0,2012-11-06 02:15:00
7:35 PM,53.6,26.6,35,30.20,10.0,Calm,Calm,-,N/A,,Clear,0,2012-11-06 02:35:00
7:55 PM,50.0,26.6,40,30.21,10.0,Calm,Calm,-,N/A,,Clear,0,2012-11-06 02:55:00
8:15 PM,48.2,24.8,40,30.21,10.0,Calm,Calm,-,N/A,,Clear,0,2012-11-06 03:15:00
8:35 PM,48.2,24.8,40,30.21,8.0,Calm,Calm,-,N/A,,Clear,0,2012-11-06 03:35:00
8:55 PM,48.2,24.8,40,30.21,10.0,Calm,Calm,-,N/A,,Clear,0,2012-11-06 03:55:00
9:15 PM,48.2,26.6,43,30.21,10.0,SSE,3.5,-,N/A,,Clear,160,2012-11-06 04:15:00
9:35 PM,51.8,26.6,38,30.21,10.0,South,4.6,-,N/A,,Clear,180,2012-11-06 04:35:00
9:55 PM,48.2,26.6,43,30.20,9.0,SSW,6.9,-,N/A,,Clear,200,2012-11-06 04:55:00
10:15 PM,46.4,26.6,46,30.21,1.5,SSW,3.5,-,N/A,,Haze,210,2012-11-06 05:15:00
10:35 PM,48.2,26.6,43,30.20,5.0,SSW,4.6,-,N/A,,Haze,210,2012-11-06 05:35:00
10:55 PM,48.2,26.6,43,30.20,4.0,SSW,4.6,-,N/A,,Haze,210,2012-11-06 05:55:00
11:15 PM,46.4,26.6,46,30.20,1.8,SSW,3.5,-,N/A,,Haze,210,2012-11-06 06:15:00
11:35 PM,46.4,26.6,46,30.20,1.8,SW,3.5,-,N/A,,Haze,230,2012-11-06 06:35:00
11:55 PM,44.6,26.6,49,30.20,2.0,WSW,4.6,-,N/A,,Haze,240,2012-11-06 06:55:00